Time,TemperatureF,DewpointF,PressureIn,WindDirection,WindDirectionDegrees,WindSpeedMPH,WindSpeedGustMPH,Humidity,HourlyPrecipIn,Conditions,Clouds,dailyrainin,SoftwareType,DateUTC
2013-08-19 00:11:00,67.0,45.0,30.05,WSW,243,0.0,4.0,45,0.00,,,0.00,,2013-08-19 06:11:00,
2013-08-19 00:21:00,65.0,45.0,30.05,WSW,243,0.0,0.0,48,0.00,,,0.00,,2013-08-19 06:21:00,
2013-08-19 00:42:00,64.0,44.0,30.05,WSW,243,0.0,0.0,49,0.00,,,0.00,,2013-08-19 06:42:00,
2013-08-19 00:51:00,62.0,45.0,30.05,WSW,243,0.0,1.0,53,0.00,,,0.00,,2013-08-19 06:51:00,
2013-08-19 01:11:00,61.0,45.0,30.05,WSW,243,0.0,3.0,55,0.00,,,0.00,,2013-08-19 07:11:00,
2013-08-19 01:21:00,61.0,45.0,30.05,WSW,251,0.0,6.0,56,0.00,,,0.00,,2013-08-19 07:21:00,
2013-08-19 01:52:00,60.0,44.0,30.05,SW,234,0.0,0.0,56,0.00,,,0.00,,2013-08-19 07:52:00,
2013-08-19 02:11:00,60.0,45.0,30.05,SW,236,0.0,4.0,58,0.00,,,0.00,,2013-08-19 08:11:00,
2013-08-19 02:21:00,60.0,45.0,30.05,SSW,205,1.0,5.0,58,0.00,,,0.00,,2013-08-19 08:21:00,
2013-08-19 02:51:00,59.0,45.0,30.06,SW,235,0.0,1.0,59,0.00,,,0.00,,2013-08-19 08:51:00,
2013-08-19 03:11:00,59.0,46.0,30.06,West,259,2.0,6.0,61,0.00,,,0.00,,2013-08-19 09:11:00,
2013-08-19 03:21:00,59.0,46.0,30.06,West,267,0.0,3.0,61,0.00,,,0.00,,2013-08-19 09:21:00,
2013-08-19 03:53:00,58.0,46.0,30.06,West,261,0.0,1.0,64,0.00,,,0.00,,2013-08-19 09:53:00,
2013-08-19 04:22:00,56.0,46.0,30.06,West,263,0.0,1.0,69,0.00,,,0.00,,2013-08-19 10:22:00,
2013-08-19 04:42:00,55.0,45.0,30.07,West,263,0.0,0.0,70,0.00,,,0.00,,2013-08-19 10:42:00,
2013-08-19 04:52:00,54.0,45.0,30.07,West,270,0.0,4.0,72,0.00,,,0.00,,2013-08-19 10:52:00,
2013-08-19 05:12:00,53.0,45.0,30.07,West,270,0.0,1.0,74,0.00,,,0.00,,2013-08-19 11:12:00,
2013-08-19 05:21:00,53.0,45.0,30.06,West,259,0.0,5.0,75,0.00,,,0.00,,2013-08-19 11:21:00,
2013-08-19 05:52:00,53.0,45.0,30.07,West,259,0.0,0.0,74,0.00,,,0.00,,2013-08-19 11:52:00,
2013-08-19 06:11:00,53.0,45.0,30.06,West,259,0.0,0.0,75,0.00,,,0.00,,2013-08-19 12:11:00,
2013-08-19 06:21:00,52.0,45.0,30.07,West,261,0.0,1.0,77,0.00,,,0.00,,2013-08-19 12:21:00,
2013-08-19 06:42:00,51.0,44.0,30.07,West,261,0.0,1.0,78,0.00,,,0.00,,2013-08-19 12:42:00,
2013-08-19 06:52:00,51.0,44.0,30.08,West,261,0.0,1.0,77,0.00,,,0.00,,2013-08-19 12:52:00,
2013-08-19 07:22:00,49.0,44.0,30.09,West,261,0.0,0.0,82,0.00,,,0.00,,2013-08-19 13:22:00,
2013-08-19 07:42:00,49.0,44.0,30.09,West,261,0.0,1.0,84,0.00,,,0.00,,2013-08-19 13:42:00,
2013-08-19 07:52:00,49.0,45.0,30.09,West,261,0.0,1.0,86,0.00,,,0.00,,2013-08-19 13:52:00,
2013-08-19 08:21:00,51.0,46.0,30.09,West,274,0.0,3.0,83,0.00,,,0.00,,2013-08-19 14:21:00,
2013-08-19 08:52:00,54.0,48.0,30.09,WNW,294,0.0,3.0,79,0.00,,,0.00,,2013-08-19 14:52:00,
2013-08-19 09:11:00,56.0,48.0,30.08,WNW,294,0.0,2.0,74,0.00,,,0.00,,2013-08-19 15:11:00,
2013-08-19 09:22:00,58.0,49.0,30.08,WNW,294,0.0,1.0,72,0.00,,,0.00,,2013-08-19 15:22:00,
2013-08-19 09:54:00,64.0,51.0,30.07,NE,36,0.0,1.0,62,0.00,,,0.00,,2013-08-19 15:54:00,
2013-08-19 10:13:00,66.0,52.0,30.06,East,88,0.0,5.0,61,0.00,,,0.00,,2013-08-19 16:13:00,
2013-08-19 10:23:00,67.0,54.0,30.06,ESE,107,1.0,5.0,62,0.00,,,0.00,,2013-08-19 16:23:00,
2013-08-19 10:47:00,68.0,54.0,30.06,SE,142,2.0,7.0,62,0.00,,,0.00,,2013-08-19 16:47:00,
2013-08-19 11:12:00,71.0,55.0,30.04,ESE,122,4.0,10.0,57,0.00,,,0.00,,2013-08-19 17:12:00,
2013-08-19 11:30:00,72.0,-99.9,30.03,SE,130,7.0,11.0,52,0.00,,,0.00,,2013-08-19 17:30:00,
2013-08-19 11:57:00,76.0,52.0,30.02,SE,131,5.0,12.0,44,0.00,,,0.00,,2013-08-19 17:57:00,
2013-08-19 12:19:00,77.0,49.0,30.02,SSE,164,2.0,17.0,38,0.00,,,0.00,,2013-08-19 18:19:00,
2013-08-19 12:28:00,79.0,50.0,30.02,SW,223,1.0,8.0,36,0.00,,,0.00,,2013-08-19 18:28:00,
2013-08-19 12:50:00,-999.0,-99.9,30.01,SSW,202,4.0,14.0,31,0.00,,,0.00,,2013-08-19 18:50:00,
2013-08-19 13:00:00,-999.0,-99.9,30.01,SW,215,6.0,16.0,30,0.00,,,0.00,,2013-08-19 19:00:00,
2013-08-19 13:16:00,81.0,47.0,30.01,WSW,246,7.0,21.0,30,0.00,,,0.00,,2013-08-19 19:16:00,
2013-08-19 13:30:00,-999.0,-99.9,30.00,SW,217,10.0,21.0,29,0.00,,,0.00,,2013-08-19 19:30:00,
2013-08-19 13:50:00,82.0,47.0,30.00,South,186,8.0,18.0,29,0.00,,,0.00,,2013-08-19 19:50:00,
2013-08-19 13:59:00,82.0,44.0,29.99,WSW,254,11.0,21.0,26,0.00,,,0.00,,2013-08-19 19:59:00,
2013-08-19 14:20:00,83.0,45.0,29.99,SW,225,12.0,22.0,26,0.00,,,0.00,,2013-08-19 20:20:00,
2013-08-19 14:30:00,83.0,42.0,29.98,SSW,195,13.0,20.0,24,0.00,,,0.00,,2013-08-19 20:30:00,
2013-08-19 15:00:00,-999.0,-99.9,29.98,SSW,207,8.0,21.0,-999,-99.99,,,-99.99,,2013-08-19 21:00:00,
2013-08-19 15:16:00,83.0,42.0,29.98,SW,227,12.0,22.0,24,0.00,,,0.00,,2013-08-19 21:16:00,
2013-08-19 15:25:00,83.0,42.0,29.98,WNW,284,12.0,22.0,24,0.00,,,0.00,,2013-08-19 21:25:00,
2013-08-19 15:54:00,83.0,44.0,29.97,SW,218,12.0,25.0,25,0.00,,,0.00,,2013-08-19 21:54:00,
2013-08-19 16:25:00,84.0,43.0,29.96,SSW,211,13.0,22.0,24,0.00,,,0.00,,2013-08-19 22:25:00,
2013-08-19 16:54:00,84.0,44.0,29.95,SSW,207,15.0,26.0,25,0.00,,,0.00,,2013-08-19 22:54:00,
2013-08-19 17:15:00,84.0,45.0,29.95,SSW,204,7.0,22.0,26,0.00,,,0.00,,2013-08-19 23:15:00,
2013-08-19 17:25:00,83.0,45.0,29.95,South,178,10.0,23.0,26,0.00,,,0.00,,2013-08-19 23:25:00,
2013-08-19 17:55:00,83.0,45.0,29.94,SW,225,13.0,25.0,26,0.00,,,0.00,,2013-08-19 23:55:00,
2013-08-19 18:11:00,84.0,45.0,29.95,SSW,211,10.0,21.0,26,0.00,,,0.00,,2013-08-20 00:11:00,
2013-08-19 18:23:00,83.0,45.0,29.94,SW,221,12.0,22.0,26,0.00,,,0.00,,2013-08-20 00:23:00,
2013-08-19 18:41:00,83.0,46.0,29.95,West,265,8.0,20.0,27,0.00,,,0.00,,2013-08-20 00:41:00,
2013-08-19 18:52:00,83.0,46.0,29.95,WNW,285,7.0,17.0,27,0.00,,,0.00,,2013-08-20 00:52:00,
2013-08-19 19:11:00,83.0,47.0,29.95,WNW,303,6.0,15.0,28,0.00,,,0.00,,2013-08-20 01:11:00,
2013-08-19 19:22:00,82.0,46.0,29.95,SW,233,5.0,17.0,28,0.00,,,0.00,,2013-08-20 01:22:00,
2013-08-19 19:42:00,82.0,47.0,29.94,West,273,7.0,15.0,29,0.00,,,0.00,,2013-08-20 01:42:00,
2013-08-19 19:52:00,81.0,47.0,29.95,West,267,4.0,12.0,30,0.00,,,0.00,,2013-08-20 01:52:00,
2013-08-19 20:11:00,81.0,47.0,29.95,SW,221,7.0,14.0,30,0.00,,,0.00,,2013-08-20 02:11:00,
2013-08-19 20:21:00,80.0,47.0,29.95,WSW,244,2.0,11.0,31,0.00,,,0.00,,2013-08-20 02:21:00,
2013-08-19 20:51:00,78.0,47.0,29.96,West,263,2.0,9.0,33,0.00,,,0.00,,2013-08-20 02:51:00,
2013-08-19 21:22:00,76.0,46.0,29.97,WSW,254,0.0,6.0,35,0.00,,,0.00,,2013-08-20 03:22:00,
2013-08-19 21:43:00,75.0,46.0,29.97,WSW,251,1.0,7.0,36,0.00,,,0.00,,2013-08-20 03:43:00,
2013-08-19 21:53:00,74.0,46.0,29.98,West,276,0.0,7.0,37,0.00,,,0.00,,2013-08-20 03:53:00,
2013-08-19 22:13:00,74.0,47.0,29.98,WNW,290,3.0,8.0,38,0.00,,,0.00,,2013-08-20 04:13:00,
2013-08-19 22:23:00,73.0,47.0,29.99,WNW,284,2.0,8.0,39,0.00,,,0.00,,2013-08-20 04:23:00,
2013-08-19 22:53:00,73.0,47.0,29.99,WSW,247,0.0,6.0,40,0.00,,,0.00,,2013-08-20 04:53:00,
2013-08-19 23:12:00,72.0,47.0,29.99,WSW,238,0.0,6.0,41,0.00,,,0.00,,2013-08-20 05:12:00,
2013-08-19 23:21:00,71.0,47.0,30.00,SW,218,0.0,5.0,42,0.00,,,0.00,,2013-08-20 05:21:00,
2013-08-19 23:42:00,71.0,47.0,30.00,SW,218,0.0,1.0,43,0.00,,,0.00,,2013-08-20 05:42:00,
2013-08-19 23:52:00,69.0,47.0,30.00,SW,218,0.0,0.0,46,0.00,,,0.00,,2013-08-20 05:52:00,